Weather History for KGUP - February, 2014

Change the Weather History Date:

Thursday, February 27, 2014

  Actual Average Record
Temperature  
Mean Temperature 42 °F -  
Max Temperature 60 °F 45 °F 66 °F (1986)
Min Temperature 24 °F 17 °F 5 °F (2002)
Degree Days  
Heating Degree Days 23    
Moisture  
Dew Point 24 °F    
Average Humidity 44    
Maximum Humidity 75    
Minimum Humidity 28    
Precipitation  
Precipitation 0.00 in - - ()
Sea Level Pressure  
Sea Level Pressure 29.78 in    
Wind  
Wind Speed 14 mph (WSW)    
Max Wind Speed 44 mph    
Max Gust Speed 61 mph    
Visibility 9 miles    
Events Rain    
Averages and records for this station are not official NWS values.
T = Trace of Precipitation, MM = Missing Value Source: NWS Daily Summary

Daily Weather History Graph

Daily Weather History Graph

Search for Another Location

Airport or City:

Trip Planner

Search our weather history database for the weather conditions in past years. The results will help you decide how hot, cold, wet, or windy it might be!

Date:

Astronomy

Feb. 27, 2014 Rise Set
Actual Time 6:47 AM MST 6:08 PM MST
Civil Twilight 6:21 AM MST 6:34 PM MST
Nautical Twilight 5:52 AM MST 7:03 PM MST
Astronomical Twilight 5:22 AM MST 7:33 PM MST
Moon 5:19 AM MST (2/27) 4:39 PM MST (2/27)
Length of Visible Light 12h 12m
Length of Day
11h 21m
Waning Crescent, 4% of the Moon is Illuminated
Feb 27
Waning Crescent
Mar 1
New
Mar 8
First Quarter
Mar 16
Full
Mar 23
Last Quarter

Hourly Weather History & Observations

Time (MST) Temp. Windchill Dew Point Humidity Pressure Visibility Wind Dir Wind Speed Gust Speed Precip Events Conditions
12:53 AM 34.0 °F 31.0 °F 12.0 °F 40% 29.87 in 10.0 mi ENE 3.5 mph - N/A   Partly Cloudy
1:53 AM 35.1 °F - 14.0 °F 42% 29.84 in 10.0 mi Calm Calm - N/A   Mostly Cloudy
2:53 AM 42.1 °F 37.1 °F 26.1 °F 53% 29.78 in 10.0 mi SSW 8.1 mph - N/A   Partly Cloudy
3:53 AM 37.0 °F 31.6 °F 24.1 °F 59% 29.81 in 10.0 mi SSW 6.9 mph - N/A   Partly Cloudy
4:53 AM 33.1 °F 30.0 °F 21.0 °F 61% 29.86 in 10.0 mi NE 3.5 mph - N/A   Partly Cloudy
5:53 AM 30.0 °F 24.1 °F 19.9 °F 66% 29.88 in 10.0 mi ENE 5.8 mph - N/A   Clear
6:53 AM 24.1 °F 18.2 °F 17.1 °F 75% 29.97 in 10.0 mi ENE 4.6 mph - N/A   Clear
7:53 AM 36.0 °F 33.3 °F 23.0 °F 59% 29.92 in 10.0 mi East 3.5 mph - N/A   Clear
8:53 AM 46.9 °F - 30.0 °F 52% 29.84 in 10.0 mi SW 16.1 mph 21.9 mph N/A   Clear
9:53 AM 48.9 °F - 30.0 °F 48% 29.86 in 10.0 mi WSW 24.2 mph 31.1 mph N/A   Partly Cloudy
10:53 AM 53.1 °F - 30.0 °F 41% 29.82 in 10.0 mi SW 15.0 mph - N/A   Scattered Clouds
11:53 AM 53.1 °F - 28.9 °F 40% 29.81 in 10.0 mi SW 18.4 mph 25.3 mph N/A   Partly Cloudy
12:53 PM 59.0 °F - 28.9 °F 32% 29.69 in 10.0 mi SW 24.2 mph 33.4 mph N/A   Partly Cloudy
1:53 PM 60.1 °F - 28.0 °F 30% 29.62 in 10.0 mi SW 26.5 mph 32.2 mph N/A   Partly Cloudy
2:53 PM 59.0 °F - 30.0 °F 33% 29.54 in 10.0 mi SW 26.5 mph 35.7 mph 0.00 in   Mostly Cloudy
3:53 PM 53.1 °F - 30.9 °F 43% 29.61 in 10.0 mi WSW 34.5 mph 44.9 mph 0.00 in Rain Light Rain
4:30 PM 55.0 °F - 27.0 °F 34% 29.76 in 3.0 mi WSW 36.8 mph 56.4 mph 0.00 in   Haze
4:53 PM 54.0 °F - 26.1 °F 34% 29.62 in 4.0 mi WSW 43.7 mph 55.2 mph 0.00 in   Haze
5:02 PM 54.0 °F - 25.0 °F 33% 29.78 in 4.0 mi WSW 41.4 mph 61.0 mph N/A   Haze
5:53 PM 51.1 °F - 25.0 °F 36% 29.69 in 3.0 mi WSW 38.0 mph 56.4 mph N/A   Haze
6:14 PM 50.0 °F - 27.0 °F 41% 29.81 in 2.5 mi West 31.1 mph 58.7 mph 0.00 in   Haze
6:21 PM 50.0 °F - 26.1 °F 39% 29.81 in 6.0 mi WSW 35.7 mph 48.3 mph 0.00 in   Haze
6:53 PM 48.9 °F - 26.1 °F 41% 29.79 in 10.0 mi WSW 29.9 mph 40.3 mph 0.00 in   Overcast
7:53 PM 48.0 °F - 16.0 °F 28% 29.76 in 10.0 mi West 24.2 mph 29.9 mph N/A   Mostly Cloudy
8:53 PM 45.0 °F 37.6 °F 15.1 °F 30% 29.73 in 10.0 mi West 17.3 mph - N/A   Clear
9:53 PM 39.9 °F 32.1 °F 21.0 °F 47% 29.77 in 10.0 mi WSW 13.8 mph - N/A   Clear
10:53 PM 39.0 °F 31.8 °F 21.0 °F 49% 29.76 in 10.0 mi West 11.5 mph - N/A   Clear
11:53 PM 34.0 °F 28.0 °F 19.9 °F 56% 29.80 in 10.0 mi WSW 6.9 mph - N/A   Clear